Time,TemperatureF,DewpointF,PressureIn,WindDirection,WindDirectionDegrees,WindSpeedMPH,WindSpeedGustMPH,Humidity,HourlyPrecipIn,Conditions,Clouds,dailyrainin,SoftwareType,DateUTC
2013-03-20 00:03:00,48.5,25.2,29.99,ENE,69,0.0,0.0,40,0.00,,,0.00,Wunderground v.1.15,2013-03-20 07:03:00,
2013-03-20 00:08:00,48.8,25.5,29.99,NE,56,2.0,2.0,40,0.00,,,0.00,Wunderground v.1.15,2013-03-20 07:08:00,
2013-03-20 00:14:00,49.7,25.1,29.99,NE,56,0.0,1.0,38,0.00,,,0.00,Wunderground v.1.15,2013-03-20 07:14:00,
2013-03-20 00:19:00,50.4,25.7,29.99,ENE,65,2.0,2.0,38,0.00,,,0.00,Wunderground v.1.15,2013-03-20 07:19:00,
2013-03-20 00:25:00,49.4,25.4,29.99,East,98,3.0,3.0,39,0.00,,,0.00,Wunderground v.1.15,2013-03-20 07:25:00,
2013-03-20 00:31:00,49.0,25.7,29.99,SSE,162,0.0,2.0,40,0.00,,,0.00,Wunderground v.1.15,2013-03-20 07:31:00,
2013-03-20 00:36:00,49.1,25.8,29.99,East,90,0.0,2.0,40,0.00,,,0.00,Wunderground v.1.15,2013-03-20 07:36:00,
2013-03-20 00:42:00,49.2,25.9,29.99,East,89,0.0,0.0,40,0.00,,,0.00,Wunderground v.1.15,2013-03-20 07:42:00,
2013-03-20 00:48:00,49.0,25.7,29.99,East,85,0.0,0.0,40,0.00,,,0.00,Wunderground v.1.15,2013-03-20 07:48:00,
2013-03-20 00:53:00,49.2,25.9,29.99,East,85,0.0,0.0,40,0.00,,,0.00,Wunderground v.1.15,2013-03-20 07:53:00,
2013-03-20 00:59:00,48.6,25.3,29.99,East,85,0.0,0.0,40,0.00,,,0.00,Wunderground v.1.15,2013-03-20 07:59:00,
2013-03-20 01:05:00,49.0,25.7,29.99,East,90,2.0,4.0,40,0.00,,,0.00,Wunderground v.1.15,2013-03-20 08:05:00,
2013-03-20 01:11:00,48.7,26.0,29.99,East,86,2.0,2.0,41,0.00,,,0.00,Wunderground v.1.15,2013-03-20 08:11:00,
2013-03-20 01:17:00,49.6,25.6,29.99,East,87,2.0,2.0,39,0.00,,,0.00,Wunderground v.1.15,2013-03-20 08:17:00,
2013-03-20 01:22:00,49.1,25.8,29.99,East,80,1.0,2.0,40,0.00,,,0.00,Wunderground v.1.15,2013-03-20 08:22:00,
2013-03-20 01:28:00,48.0,25.4,29.98,East,79,0.0,2.0,41,0.00,,,0.00,Wunderground v.1.15,2013-03-20 08:28:00,
2013-03-20 01:33:00,47.2,25.8,29.99,ENE,65,0.0,0.0,43,0.00,,,0.00,Wunderground v.1.15,2013-03-20 08:33:00,
2013-03-20 01:39:00,47.0,26.2,29.98,East,83,3.0,5.0,44,0.00,,,0.00,Wunderground v.1.15,2013-03-20 08:39:00,
2013-03-20 01:45:00,47.3,25.9,29.98,ENE,63,3.0,3.0,43,0.00,,,0.00,Wunderground v.1.15,2013-03-20 08:45:00,
2013-03-20 01:50:00,47.2,26.4,29.98,ENE,68,2.0,3.0,44,0.00,,,0.00,Wunderground v.1.15,2013-03-20 08:50:00,
2013-03-20 01:55:00,47.2,26.4,29.98,East,83,0.0,3.0,44,0.00,,,0.00,Wunderground v.1.15,2013-03-20 08:55:00,
2013-03-20 02:00:00,47.0,26.2,29.99,East,88,1.0,2.0,44,0.00,,,0.00,Wunderground v.1.15,2013-03-20 09:00:00,
2013-03-20 02:06:00,46.8,26.0,29.99,ESE,113,2.0,2.0,44,0.00,,,0.00,Wunderground v.1.15,2013-03-20 09:06:00,
2013-03-20 02:11:00,46.9,26.1,29.99,East,96,2.0,2.0,44,0.00,,,0.00,Wunderground v.1.15,2013-03-20 09:11:00,
2013-03-20 02:17:00,46.5,26.3,29.99,East,86,1.0,2.0,45,0.00,,,0.00,Wunderground v.1.15,2013-03-20 09:17:00,
2013-03-20 02:22:00,45.9,25.7,29.99,ENE,73,1.0,2.0,45,0.00,,,0.00,Wunderground v.1.15,2013-03-20 09:22:00,
2013-03-20 02:27:00,46.3,26.1,29.99,East,91,2.0,2.0,45,0.00,,,0.00,Wunderground v.1.15,2013-03-20 09:27:00,
2013-03-20 02:32:00,46.7,25.9,29.98,East,83,2.0,2.0,44,0.00,,,0.00,Wunderground v.1.15,2013-03-20 09:32:00,
2013-03-20 02:37:00,45.8,26.2,29.98,ENE,70,2.0,2.0,46,0.00,,,0.00,Wunderground v.1.15,2013-03-20 09:37:00,
2013-03-20 02:42:00,44.9,25.9,29.98,ENE,70,1.0,2.0,47,0.00,,,0.00,Wunderground v.1.15,2013-03-20 09:42:00,
2013-03-20 02:47:00,44.9,25.9,29.98,ENE,71,2.0,2.0,47,0.00,,,0.00,Wunderground v.1.15,2013-03-20 09:47:00,
2013-03-20 02:52:00,44.6,26.1,29.99,ENE,70,1.0,2.0,48,0.00,,,0.00,Wunderground v.1.15,2013-03-20 09:52:00,
2013-03-20 02:57:00,44.4,25.9,29.98,ENE,69,1.0,2.0,48,0.00,,,0.00,Wunderground v.1.15,2013-03-20 09:57:00,
2013-03-20 03:02:00,44.0,26.0,29.98,ENE,69,1.0,2.0,49,0.00,,,0.00,Wunderground v.1.15,2013-03-20 10:02:00,
2013-03-20 03:07:00,43.9,26.0,29.98,ENE,69,1.0,2.0,49,0.00,,,0.00,Wunderground v.1.15,2013-03-20 10:07:00,
2013-03-20 03:12:00,44.1,26.1,29.98,ENE,74,2.0,3.0,49,0.00,,,0.00,Wunderground v.1.15,2013-03-20 10:12:00,
2013-03-20 03:17:00,44.7,26.2,29.98,ENE,72,2.0,3.0,48,0.00,,,0.00,Wunderground v.1.15,2013-03-20 10:17:00,
2013-03-20 03:22:00,44.1,26.1,29.98,ENE,62,2.0,2.0,49,0.00,,,0.00,Wunderground v.1.15,2013-03-20 10:22:00,
2013-03-20 03:27:00,44.2,26.2,29.98,East,91,1.0,3.0,49,0.00,,,0.00,Wunderground v.1.15,2013-03-20 10:27:00,
2013-03-20 03:32:00,44.9,26.4,29.98,ENE,77,2.0,3.0,48,0.00,,,0.00,Wunderground v.1.15,2013-03-20 10:32:00,
2013-03-20 03:37:00,45.2,26.1,29.98,SSW,208,0.0,3.0,47,0.00,,,0.00,Wunderground v.1.15,2013-03-20 10:37:00,
2013-03-20 03:42:00,45.7,26.1,29.98,ENE,78,2.0,2.0,46,0.00,,,0.00,Wunderground v.1.15,2013-03-20 10:42:00,
2013-03-20 03:47:00,46.1,25.9,29.98,ENE,75,2.0,2.0,45,0.00,,,0.00,Wunderground v.1.15,2013-03-20 10:47:00,
2013-03-20 03:53:00,46.3,26.1,29.98,ENE,73,2.0,3.0,45,0.00,,,0.00,Wunderground v.1.15,2013-03-20 10:53:00,
2013-03-20 03:58:00,46.2,26.0,29.98,ENE,72,1.0,3.0,45,0.00,,,0.00,Wunderground v.1.15,2013-03-20 10:58:00,
2013-03-20 04:03:00,45.6,26.0,29.98,ENE,74,2.0,2.0,46,0.00,,,0.00,Wunderground v.1.15,2013-03-20 11:03:00,
2013-03-20 04:08:00,44.8,25.8,29.98,ENE,76,2.0,3.0,47,0.00,,,0.00,Wunderground v.1.15,2013-03-20 11:08:00,
2013-03-20 04:13:00,44.3,25.8,29.98,ENE,67,1.0,3.0,48,0.00,,,0.00,Wunderground v.1.15,2013-03-20 11:13:00,
2013-03-20 04:18:00,43.6,25.7,29.98,ENE,78,1.0,3.0,49,0.00,,,0.00,Wunderground v.1.15,2013-03-20 11:18:00,
2013-03-20 04:23:00,44.3,25.3,29.98,ENE,70,1.0,2.0,47,0.00,,,0.00,Wunderground v.1.15,2013-03-20 11:23:00,
2013-03-20 04:28:00,44.5,25.5,29.99,ENE,68,1.0,2.0,47,0.00,,,0.00,Wunderground v.1.15,2013-03-20 11:28:00,
2013-03-20 04:34:00,45.1,25.0,29.98,ENE,69,1.0,2.0,45,0.00,,,0.00,Wunderground v.1.15,2013-03-20 11:34:00,
2013-03-20 04:39:00,45.5,25.4,29.98,ENE,67,2.0,3.0,45,0.00,,,0.00,Wunderground v.1.15,2013-03-20 11:39:00,
2013-03-20 04:44:00,45.4,25.3,29.98,ENE,70,1.0,3.0,45,0.00,,,0.00,Wunderground v.1.15,2013-03-20 11:44:00,
2013-03-20 04:49:00,45.4,24.7,29.99,ENE,71,1.0,3.0,44,0.00,,,0.00,Wunderground v.1.15,2013-03-20 11:49:00,
2013-03-20 04:54:00,45.8,25.1,29.99,ENE,65,2.0,3.0,44,0.00,,,0.00,Wunderground v.1.15,2013-03-20 11:54:00,
2013-03-20 04:59:00,45.5,24.8,29.99,ENE,66,1.0,3.0,44,0.00,,,0.00,Wunderground v.1.15,2013-03-20 11:59:00,
2013-03-20 05:04:00,44.7,24.6,29.99,ENE,66,1.0,2.0,45,0.00,,,0.00,Wunderground v.1.15,2013-03-20 12:04:00,
2013-03-20 05:09:00,44.1,24.6,29.99,ENE,69,1.0,3.0,46,0.00,,,0.00,Wunderground v.1.15,2013-03-20 12:09:00,
2013-03-20 05:14:00,44.1,24.6,29.99,ENE,70,2.0,2.0,46,0.00,,,0.00,Wunderground v.1.15,2013-03-20 12:14:00,
2013-03-20 05:19:00,44.2,24.7,29.99,ENE,69,1.0,2.0,46,0.00,,,0.00,Wunderground v.1.15,2013-03-20 12:19:00,
2013-03-20 05:24:00,44.1,24.6,29.99,ENE,64,0.0,3.0,46,0.00,,,0.00,Wunderground v.1.15,2013-03-20 12:24:00,
2013-03-20 05:29:00,44.4,24.4,29.99,ENE,69,1.0,3.0,45,0.00,,,0.00,Wunderground v.1.15,2013-03-20 12:29:00,
2013-03-20 05:34:00,44.5,24.5,29.99,ENE,66,2.0,3.0,45,0.00,,,0.00,Wunderground v.1.15,2013-03-20 12:34:00,
2013-03-20 05:39:00,44.8,24.2,29.99,ENE,66,2.0,3.0,44,0.00,,,0.00,Wunderground v.1.15,2013-03-20 12:39:00,
2013-03-20 05:44:00,44.5,24.5,29.99,ENE,67,1.0,2.0,45,0.00,,,0.00,Wunderground v.1.15,2013-03-20 12:44:00,
2013-03-20 05:49:00,44.5,24.5,29.99,ENE,67,0.0,2.0,45,0.00,,,0.00,Wunderground v.1.15,2013-03-20 12:49:00,
2013-03-20 05:54:00,45.1,23.9,29.99,ENE,66,1.0,3.0,43,0.00,,,0.00,Wunderground v.1.15,2013-03-20 12:54:00,
2013-03-20 05:59:00,44.6,24.5,29.99,ENE,67,1.0,3.0,45,0.00,,,0.00,Wunderground v.1.15,2013-03-20 12:59:00,
2013-03-20 06:04:00,44.6,24.5,29.99,ENE,64,2.0,3.0,45,0.00,,,0.00,Wunderground v.1.15,2013-03-20 13:04:00,
2013-03-20 06:09:00,44.1,24.6,29.99,ENE,59,1.0,3.0,46,0.00,,,0.00,Wunderground v.1.15,2013-03-20 13:09:00,
2013-03-20 06:14:00,44.0,24.5,29.99,ENE,70,0.0,2.0,46,0.00,,,0.00,Wunderground v.1.15,2013-03-20 13:14:00,
2013-03-20 06:19:00,44.7,24.6,29.99,ENE,67,0.0,2.0,45,0.00,,,0.00,Wunderground v.1.15,2013-03-20 13:19:00,
2013-03-20 06:24:00,44.7,24.1,29.99,ENE,64,0.0,0.0,44,0.00,,,0.00,Wunderground v.1.15,2013-03-20 13:24:00,
2013-03-20 06:29:00,45.0,24.9,29.99,East,79,0.0,0.0,45,0.00,,,0.00,Wunderground v.1.15,2013-03-20 13:29:00,
2013-03-20 06:34:00,45.4,24.7,29.99,East,79,0.0,0.0,44,0.00,,,0.00,Wunderground v.1.15,2013-03-20 13:34:00,
2013-03-20 06:39:00,45.5,24.8,29.99,ENE,69,0.0,0.0,44,0.00,,,0.00,Wunderground v.1.15,2013-03-20 13:39:00,
2013-03-20 06:44:00,45.1,25.0,29.99,ENE,69,0.0,0.0,45,0.00,,,0.00,Wunderground v.1.15,2013-03-20 13:44:00,
2013-03-20 06:49:00,45.1,25.0,30.00,ENE,69,0.0,0.0,45,0.00,,,0.00,Wunderground v.1.15,2013-03-20 13:49:00,
2013-03-20 06:54:00,46.4,25.6,30.00,East,86,0.0,0.0,44,0.00,,,0.00,Wunderground v.1.15,2013-03-20 13:54:00,
2013-03-20 06:59:00,46.0,25.3,30.00,ENE,78,0.0,0.0,44,0.00,,,0.00,Wunderground v.1.15,2013-03-20 13:59:00,
2013-03-20 07:04:00,45.9,25.7,30.00,East,82,0.0,0.0,45,0.00,,,0.00,Wunderground v.1.15,2013-03-20 14:04:00,
2013-03-20 07:09:00,47.5,26.1,30.00,East,82,0.0,0.0,43,0.00,,,0.00,Wunderground v.1.15,2013-03-20 14:09:00,
2013-03-20 07:14:00,47.8,26.4,30.00,East,82,0.0,0.0,43,0.00,,,0.00,Wunderground v.1.15,2013-03-20 14:14:00,
2013-03-20 07:19:00,48.7,26.6,30.00,ENE,75,0.0,0.0,42,0.00,,,0.00,Wunderground v.1.15,2013-03-20 14:19:00,
2013-03-20 07:24:00,49.6,28.0,30.01,ENE,75,0.0,0.0,43,0.00,,,0.00,Wunderground v.1.15,2013-03-20 14:24:00,
2013-03-20 07:29:00,50.7,27.8,30.01,ENE,75,0.0,0.0,41,0.00,,,0.00,Wunderground v.1.15,2013-03-20 14:29:00,
2013-03-20 07:34:00,52.6,27.7,30.01,ENE,66,0.0,0.0,38,0.00,,,0.00,Wunderground v.1.15,2013-03-20 14:34:00,
2013-03-20 07:39:00,54.4,27.3,30.01,ENE,66,0.0,0.0,35,0.00,,,0.00,Wunderground v.1.15,2013-03-20 14:39:00,
2013-03-20 07:44:00,55.9,26.4,30.01,ENE,68,0.0,0.0,32,0.00,,,0.00,Wunderground v.1.15,2013-03-20 14:44:00,
2013-03-20 07:49:00,57.4,26.2,30.01,ENE,68,0.0,0.0,30,0.00,,,0.00,Wunderground v.1.15,2013-03-20 14:49:00,
2013-03-20 07:54:00,58.6,27.2,30.01,ESE,108,0.0,0.0,30,0.00,,,0.00,Wunderground v.1.15,2013-03-20 14:54:00,
2013-03-20 07:59:00,59.1,26.8,30.01,South,191,0.0,0.0,29,0.00,,,0.00,Wunderground v.1.15,2013-03-20 14:59:00,
2013-03-20 08:04:00,59.6,26.4,30.02,SW,229,0.0,0.0,28,0.00,,,0.00,Wunderground v.1.15,2013-03-20 15:04:00,
2013-03-20 08:09:00,60.3,27.0,30.02,South,183,0.0,0.0,28,0.00,,,0.00,Wunderground v.1.15,2013-03-20 15:09:00,
2013-03-20 08:14:00,61.3,27.0,30.01,SSE,150,0.0,3.0,27,0.00,,,0.00,Wunderground v.1.15,2013-03-20 15:14:00,
2013-03-20 08:19:00,61.9,26.6,30.01,SSE,156,2.0,5.0,26,0.00,,,0.00,Wunderground v.1.15,2013-03-20 15:19:00,
2013-03-20 08:24:00,62.4,26.1,30.01,SE,127,1.0,4.0,25,0.00,,,0.00,Wunderground v.1.15,2013-03-20 15:24:00,
2013-03-20 08:29:00,62.5,27.1,30.01,WSW,238,1.0,5.0,26,0.00,,,0.00,Wunderground v.1.15,2013-03-20 15:29:00,
2013-03-20 08:34:00,62.7,27.3,30.00,SW,219,1.0,2.0,26,0.00,,,0.00,Wunderground v.1.15,2013-03-20 15:34:00,
2013-03-20 08:39:00,63.3,26.8,30.01,East,98,0.0,3.0,25,0.00,,,0.00,Wunderground v.1.15,2013-03-20 15:39:00,
2013-03-20 08:44:00,63.9,27.4,30.00,SSE,167,0.0,1.0,25,0.00,,,0.00,Wunderground v.1.15,2013-03-20 15:44:00,
2013-03-20 08:49:00,64.3,26.7,30.00,SE,136,2.0,3.0,24,0.00,,,0.00,Wunderground v.1.15,2013-03-20 15:49:00,
2013-03-20 08:54:00,64.3,26.7,30.00,SSW,194,0.0,4.0,24,0.00,,,0.00,Wunderground v.1.15,2013-03-20 15:54:00,
2013-03-20 08:59:00,64.4,26.8,30.00,SSW,198,2.0,4.0,24,0.00,,,0.00,Wunderground v.1.15,2013-03-20 15:59:00,
2013-03-20 09:04:00,64.8,27.1,30.00,SW,224,2.0,5.0,24,0.00,,,0.00,Wunderground v.1.15,2013-03-20 16:04:00,
2013-03-20 09:09:00,65.4,26.6,30.00,SSE,149,5.0,7.0,23,0.00,,,0.00,Wunderground v.1.15,2013-03-20 16:09:00,
2013-03-20 09:14:00,66.0,27.1,29.99,SSE,150,6.0,7.0,23,0.00,,,0.00,Wunderground v.1.15,2013-03-20 16:14:00,
2013-03-20 09:19:00,66.4,25.2,29.99,ESE,102,3.0,10.0,21,0.00,,,0.00,Wunderground v.1.15,2013-03-20 16:19:00,
2013-03-20 09:24:00,67.1,25.8,29.99,South,187,6.0,8.0,21,0.00,,,0.00,Wunderground v.1.15,2013-03-20 16:24:00,
2013-03-20 09:29:00,67.5,25.0,29.98,SSE,149,5.0,11.0,20,0.00,,,0.00,Wunderground v.1.15,2013-03-20 16:29:00,
2013-03-20 09:34:00,67.9,25.3,29.99,East,89,5.0,10.0,20,0.00,,,0.00,Wunderground v.1.15,2013-03-20 16:34:00,
2013-03-20 09:39:00,67.9,24.1,29.99,ESE,114,7.0,10.0,19,0.00,,,0.00,Wunderground v.1.15,2013-03-20 16:39:00,
2013-03-20 09:44:00,67.9,24.1,29.99,SE,143,8.0,8.0,19,0.00,,,0.00,Wunderground v.1.15,2013-03-20 16:44:00,
2013-03-20 09:49:00,67.8,24.0,29.98,SE,146,9.0,9.0,19,0.00,,,0.00,Wunderground v.1.15,2013-03-20 16:49:00,
2013-03-20 09:55:00,68.1,24.2,29.98,SSE,155,5.0,10.0,19,0.00,,,0.00,Wunderground v.1.15,2013-03-20 16:55:00,
2013-03-20 09:59:00,68.5,23.3,29.97,ESE,122,5.0,7.0,18,0.00,,,0.00,Wunderground v.1.15,2013-03-20 16:59:00,
2013-03-20 10:05:00,68.6,23.4,29.97,ESE,114,6.0,12.0,18,0.00,,,0.00,Wunderground v.1.15,2013-03-20 17:05:00,
2013-03-20 10:10:00,68.4,24.5,29.97,SE,129,6.0,8.0,19,0.00,,,0.00,Wunderground v.1.15,2013-03-20 17:10:00,
2013-03-20 10:15:00,69.0,25.0,29.97,SE,136,7.0,13.0,19,0.00,,,0.00,Wunderground v.1.15,2013-03-20 17:15:00,
2013-03-20 10:20:00,69.2,23.9,29.97,ESE,114,9.0,9.0,18,0.00,,,0.00,Wunderground v.1.15,2013-03-20 17:20:00,
2013-03-20 10:25:00,69.7,24.3,29.97,ESE,105,14.0,14.0,18,0.00,,,0.00,Wunderground v.1.15,2013-03-20 17:25:00,
2013-03-20 10:30:00,69.6,24.2,29.96,SE,129,10.0,10.0,18,0.00,,,0.00,Wunderground v.1.15,2013-03-20 17:30:00,
2013-03-20 10:35:00,69.8,24.3,29.96,SE,145,12.0,15.0,18,0.00,,,0.00,Wunderground v.1.15,2013-03-20 17:35:00,
2013-03-20 10:40:00,70.0,24.5,29.96,SE,131,8.0,9.0,18,0.00,,,0.00,Wunderground v.1.15,2013-03-20 17:40:00,
2013-03-20 10:45:00,70.5,23.5,29.96,ESE,108,6.0,11.0,17,0.00,,,0.00,Wunderground v.1.15,2013-03-20 17:45:00,
2013-03-20 10:50:00,70.9,23.9,29.96,SE,131,6.0,8.0,17,0.00,,,0.00,Wunderground v.1.15,2013-03-20 17:50:00,
2013-03-20 10:55:00,71.1,24.0,29.95,SE,128,8.0,16.0,17,0.00,,,0.00,Wunderground v.1.15,2013-03-20 17:55:00,
2013-03-20 11:00:00,70.9,23.9,29.95,SE,127,3.0,7.0,17,0.00,,,0.00,Wunderground v.1.15,2013-03-20 18:00:00,
2013-03-20 11:05:00,71.2,24.1,29.95,SE,134,11.0,15.0,17,0.00,,,0.00,Wunderground v.1.15,2013-03-20 18:05:00,
2013-03-20 11:10:00,71.2,24.1,29.94,ESE,117,12.0,12.0,17,0.00,,,0.00,Wunderground v.1.15,2013-03-20 18:10:00,
2013-03-20 11:15:00,71.0,24.0,29.94,East,91,5.0,13.0,17,0.00,,,0.00,Wunderground v.1.15,2013-03-20 18:15:00,
2013-03-20 11:20:00,71.1,24.0,29.93,SE,131,7.0,8.0,17,0.00,,,0.00,Wunderground v.1.15,2013-03-20 18:20:00,
2013-03-20 11:25:00,71.9,24.7,29.93,SE,134,7.0,13.0,17,0.00,,,0.00,Wunderground v.1.15,2013-03-20 18:25:00,
2013-03-20 11:30:00,71.6,24.4,29.93,ESE,108,5.0,8.0,17,0.00,,,0.00,Wunderground v.1.15,2013-03-20 18:30:00,
2013-03-20 11:35:00,71.9,24.7,29.93,SSE,153,5.0,11.0,17,0.00,,,0.00,Wunderground v.1.15,2013-03-20 18:35:00,
2013-03-20 11:40:00,72.1,23.4,29.93,South,173,3.0,7.0,16,0.00,,,0.00,Wunderground v.1.15,2013-03-20 18:40:00,
2013-03-20 11:45:00,72.1,23.4,29.93,SE,138,5.0,9.0,16,0.00,,,0.00,Wunderground v.1.15,2013-03-20 18:45:00,
2013-03-20 11:50:00,72.4,22.1,29.94,ESE,105,3.0,5.0,15,0.00,,,0.00,Wunderground v.1.15,2013-03-20 18:50:00,
2013-03-20 11:55:00,72.7,23.9,29.93,East,101,5.0,6.0,16,0.00,,,0.00,Wunderground v.1.15,2013-03-20 18:55:00,
2013-03-20 12:00:00,73.1,22.7,29.93,South,173,7.0,7.0,15,0.00,,,0.00,Wunderground v.1.15,2013-03-20 19:00:00,
2013-03-20 12:05:00,73.6,23.1,29.93,West,266,5.0,7.0,15,0.00,,,0.00,Wunderground v.1.15,2013-03-20 19:05:00,
2013-03-20 12:10:00,73.9,23.3,29.92,SW,234,2.0,5.0,15,0.00,,,0.00,Wunderground v.1.15,2013-03-20 19:10:00,
2013-03-20 12:15:00,74.1,23.5,29.91,SE,138,4.0,7.0,15,0.00,,,0.00,Wunderground v.1.15,2013-03-20 19:15:00,
2013-03-20 12:20:00,74.3,23.6,29.91,SE,141,6.0,6.0,15,0.00,,,0.00,Wunderground v.1.15,2013-03-20 19:20:00,
2013-03-20 12:25:00,74.4,23.7,29.91,SE,135,4.0,7.0,15,0.00,,,0.00,Wunderground v.1.15,2013-03-20 19:25:00,
2013-03-20 12:30:00,74.1,23.5,29.90,South,177,0.0,4.0,15,0.00,,,0.00,Wunderground v.1.15,2013-03-20 19:30:00,
2013-03-20 12:35:00,74.5,23.8,29.90,SE,124,3.0,8.0,15,0.00,,,0.00,Wunderground v.1.15,2013-03-20 19:35:00,
2013-03-20 12:40:00,74.9,22.5,29.90,WSW,239,3.0,5.0,14,0.00,,,0.00,Wunderground v.1.15,2013-03-20 19:40:00,
2013-03-20 12:45:00,74.6,23.9,29.90,South,188,3.0,8.0,15,0.00,,,0.00,Wunderground v.1.15,2013-03-20 19:45:00,
2013-03-20 12:50:00,74.3,22.0,29.90,SSW,208,4.0,4.0,14,0.00,,,0.00,Wunderground v.1.15,2013-03-20 19:50:00,
2013-03-20 12:55:00,74.5,22.1,29.89,SSW,206,4.0,11.0,14,0.00,,,0.00,Wunderground v.1.15,2013-03-20 19:55:00,
2013-03-20 13:00:00,75.0,20.8,29.89,SSW,210,10.0,10.0,13,0.00,,,0.00,Wunderground v.1.15,2013-03-20 20:00:00,
2013-03-20 13:05:00,75.6,21.2,29.89,West,261,9.0,11.0,13,0.00,,,0.00,Wunderground v.1.15,2013-03-20 20:05:00,
2013-03-20 13:10:00,75.1,20.9,29.89,West,267,3.0,7.0,13,0.00,,,0.00,Wunderground v.1.15,2013-03-20 20:10:00,
2013-03-20 13:15:00,75.3,21.0,29.89,WNW,291,4.0,10.0,13,0.00,,,0.00,Wunderground v.1.15,2013-03-20 20:15:00,
2013-03-20 13:20:00,75.7,21.3,29.89,WNW,283,5.0,10.0,13,0.00,,,0.00,Wunderground v.1.15,2013-03-20 20:20:00,
2013-03-20 13:25:00,75.5,19.3,29.88,NW,307,8.0,12.0,12,0.00,,,0.00,Wunderground v.1.15,2013-03-20 20:25:00,
2013-03-20 13:30:00,75.0,18.9,29.88,West,276,4.0,8.0,12,0.00,,,0.00,Wunderground v.1.15,2013-03-20 20:30:00,
2013-03-20 13:35:00,74.9,18.8,29.87,West,263,7.0,14.0,12,0.00,,,0.00,Wunderground v.1.15,2013-03-20 20:35:00,
2013-03-20 13:40:00,74.7,20.5,29.87,WSW,257,7.0,7.0,13,0.00,,,0.00,Wunderground v.1.15,2013-03-20 20:40:00,
2013-03-20 13:45:00,74.8,20.6,29.87,NW,326,8.0,10.0,13,0.00,,,0.00,Wunderground v.1.15,2013-03-20 20:45:00,
2013-03-20 13:50:00,74.8,20.6,29.87,NNE,32,2.0,6.0,13,0.00,,,0.00,Wunderground v.1.15,2013-03-20 20:50:00,
2013-03-20 13:55:00,74.9,20.7,29.86,WNW,289,4.0,8.0,13,0.00,,,0.00,Wunderground v.1.15,2013-03-20 20:55:00,
2013-03-20 14:00:00,74.8,20.6,29.86,WNW,300,2.0,4.0,13,0.00,,,0.00,Wunderground v.1.15,2013-03-20 21:00:00,
2013-03-20 14:05:00,75.5,21.2,29.86,WSW,255,7.0,9.0,13,0.00,,,0.00,Wunderground v.1.15,2013-03-20 21:05:00,
2013-03-20 14:10:00,75.3,21.0,29.85,WNW,291,3.0,5.0,13,0.00,,,0.00,Wunderground v.1.15,2013-03-20 21:10:00,
2013-03-20 14:15:00,75.4,22.8,29.85,WNW,290,6.0,8.0,14,0.00,,,0.00,Wunderground v.1.15,2013-03-20 21:15:00,
2013-03-20 14:20:00,75.5,21.2,29.85,West,276,6.0,9.0,13,0.00,,,0.00,Wunderground v.1.15,2013-03-20 21:20:00,
2013-03-20 14:25:00,75.0,22.5,29.85,WNW,302,8.0,9.0,14,0.00,,,0.00,Wunderground v.1.15,2013-03-20 21:25:00,
2013-03-20 14:30:00,74.9,22.5,29.84,West,279,6.0,8.0,14,0.00,,,0.00,Wunderground v.1.15,2013-03-20 21:30:00,
2013-03-20 14:35:00,74.6,22.2,29.85,NW,320,5.0,13.0,14,0.00,,,0.00,Wunderground v.1.15,2013-03-20 21:35:00,
2013-03-20 14:40:00,74.4,22.1,29.85,WNW,300,6.0,7.0,14,0.00,,,0.00,Wunderground v.1.15,2013-03-20 21:40:00,
2013-03-20 14:45:00,74.1,23.5,29.84,WNW,298,8.0,12.0,15,0.00,,,0.00,Wunderground v.1.15,2013-03-20 21:45:00,
2013-03-20 14:50:00,73.8,23.2,29.84,NW,316,4.0,8.0,15,0.00,,,0.00,Wunderground v.1.15,2013-03-20 21:50:00,
2013-03-20 14:55:00,74.0,23.4,29.84,WNW,288,6.0,12.0,15,0.00,,,0.00,Wunderground v.1.15,2013-03-20 21:55:00,
2013-03-20 15:00:00,73.9,23.3,29.84,NW,307,12.0,13.0,15,0.00,,,0.00,Wunderground v.1.15,2013-03-20 22:00:00,
2013-03-20 15:05:00,73.7,23.1,29.84,West,280,7.0,16.0,15,0.00,,,0.00,Wunderground v.1.15,2013-03-20 22:05:00,
2013-03-20 15:10:00,73.3,24.4,29.85,WNW,295,13.0,16.0,16,0.00,,,0.00,Wunderground v.1.15,2013-03-20 22:10:00,
2013-03-20 15:15:00,73.3,24.4,29.85,WNW,297,11.0,16.0,16,0.00,,,0.00,Wunderground v.1.15,2013-03-20 22:15:00,
2013-03-20 15:20:00,72.8,24.0,29.85,West,275,7.0,10.0,16,0.00,,,0.00,Wunderground v.1.15,2013-03-20 22:20:00,
2013-03-20 15:25:00,72.7,23.9,29.85,WNW,295,13.0,16.0,16,0.00,,,0.00,Wunderground v.1.15,2013-03-20 22:25:00,
2013-03-20 15:30:00,72.8,24.0,29.84,WNW,297,10.0,11.0,16,0.00,,,0.00,Wunderground v.1.15,2013-03-20 22:30:00,
2013-03-20 15:35:00,72.8,24.0,29.84,West,281,8.0,13.0,16,0.00,,,0.00,Wunderground v.1.15,2013-03-20 22:35:00,
2013-03-20 15:40:00,72.4,22.1,29.84,WNW,285,10.0,17.0,15,0.00,,,0.00,Wunderground v.1.15,2013-03-20 22:40:00,
2013-03-20 15:45:00,72.3,22.0,29.84,NW,320,9.0,17.0,15,0.00,,,0.00,Wunderground v.1.15,2013-03-20 22:45:00,
2013-03-20 15:50:00,72.5,22.2,29.84,NW,313,8.0,11.0,15,0.00,,,0.00,Wunderground v.1.15,2013-03-20 22:50:00,
2013-03-20 15:55:00,72.6,22.3,29.84,West,281,13.0,16.0,15,0.00,,,0.00,Wunderground v.1.15,2013-03-20 22:55:00,
2013-03-20 16:00:00,72.5,22.2,29.84,WNW,283,8.0,13.0,15,0.00,,,0.00,Wunderground v.1.15,2013-03-20 23:00:00,
2013-03-20 16:05:00,72.4,22.1,29.84,NW,304,10.0,17.0,15,0.00,,,0.00,Wunderground v.1.15,2013-03-20 23:05:00,
2013-03-20 16:10:00,72.8,20.8,29.84,West,280,10.0,13.0,14,0.00,,,0.00,Wunderground v.1.15,2013-03-20 23:10:00,
2013-03-20 16:15:00,73.0,22.6,29.84,NW,310,9.0,16.0,15,0.00,,,0.00,Wunderground v.1.15,2013-03-20 23:15:00,
2013-03-20 16:20:00,73.0,24.1,29.84,WNW,294,10.0,14.0,16,0.00,,,0.00,Wunderground v.1.15,2013-03-20 23:20:00,
2013-03-20 16:25:00,73.0,24.1,29.84,West,270,9.0,14.0,16,0.00,,,0.00,Wunderground v.1.15,2013-03-20 23:25:00,
2013-03-20 16:30:00,73.0,24.1,29.84,West,270,12.0,12.0,16,0.00,,,0.00,Wunderground v.1.15,2013-03-20 23:30:00,
2013-03-20 16:35:00,72.4,25.1,29.84,WNW,293,9.0,14.0,17,0.00,,,0.00,Wunderground v.1.15,2013-03-20 23:35:00,
2013-03-20 16:40:00,71.9,24.7,29.84,WNW,287,12.0,12.0,17,0.00,,,0.00,Wunderground v.1.15,2013-03-20 23:40:00,
2013-03-20 16:45:00,72.1,24.8,29.84,West,278,11.0,15.0,17,0.00,,,0.00,Wunderground v.1.15,2013-03-20 23:45:00,
2013-03-20 16:50:00,71.4,24.3,29.83,WNW,283,6.0,8.0,17,0.00,,,0.00,Wunderground v.1.15,2013-03-20 23:50:00,
2013-03-20 16:55:00,70.8,23.8,29.83,WNW,294,5.0,12.0,17,0.00,,,0.00,Wunderground v.1.15,2013-03-20 23:55:00,
2013-03-20 17:00:00,70.4,24.8,29.83,WNW,302,3.0,8.0,18,0.00,,,0.00,Wunderground v.1.15,2013-03-21 00:00:00,
2013-03-20 17:05:00,70.1,24.6,29.83,WNW,287,8.0,11.0,18,0.00,,,0.00,Wunderground v.1.15,2013-03-21 00:05:00,
2013-03-20 17:10:00,70.0,24.5,29.83,WNW,294,8.0,11.0,18,0.00,,,0.00,Wunderground v.1.15,2013-03-21 00:10:00,
2013-03-20 17:15:00,69.9,23.1,29.83,WNW,297,5.0,11.0,17,0.00,,,0.00,Wunderground v.1.15,2013-03-21 00:15:00,
2013-03-20 17:20:00,69.9,24.4,29.83,WNW,291,6.0,8.0,18,0.00,,,0.00,Wunderground v.1.15,2013-03-21 00:20:00,
2013-03-20 17:25:00,70.3,24.8,29.82,NW,317,7.0,9.0,18,0.00,,,0.00,Wunderground v.1.15,2013-03-21 00:25:00,
2013-03-20 17:30:00,71.2,25.5,29.82,West,278,7.0,10.0,18,0.00,,,0.00,Wunderground v.1.15,2013-03-21 00:30:00,
2013-03-20 17:35:00,71.3,24.2,29.82,NW,307,7.0,11.0,17,0.00,,,0.00,Wunderground v.1.15,2013-03-21 00:35:00,
2013-03-20 17:41:00,70.8,25.2,29.82,WNW,291,7.0,11.0,18,0.00,,,0.00,Wunderground v.1.15,2013-03-21 00:41:00,
2013-03-20 17:46:00,70.5,24.9,29.82,West,277,5.0,11.0,18,0.00,,,0.00,Wunderground v.1.15,2013-03-21 00:46:00,
2013-03-20 17:51:00,70.3,24.8,29.83,West,280,2.0,6.0,18,0.00,,,0.00,Wunderground v.1.15,2013-03-21 00:51:00,
2013-03-20 17:56:00,70.2,24.7,29.83,WNW,285,2.0,8.0,18,0.00,,,0.00,Wunderground v.1.15,2013-03-21 00:56:00,
2013-03-20 18:01:00,69.9,24.4,29.82,WSW,257,3.0,6.0,18,0.00,,,0.00,Wunderground v.1.15,2013-03-21 01:01:00,
2013-03-20 18:06:00,69.2,25.1,29.82,WSW,253,7.0,9.0,19,0.00,,,0.00,Wunderground v.1.15,2013-03-21 01:06:00,
2013-03-20 18:11:00,68.5,24.6,29.82,West,269,5.0,7.0,19,0.00,,,0.00,Wunderground v.1.15,2013-03-21 01:11:00,
2013-03-20 18:16:00,68.0,24.2,29.82,West,278,7.0,10.0,19,0.00,,,0.00,Wunderground v.1.15,2013-03-21 01:16:00,
2013-03-20 18:21:00,67.8,25.2,29.82,WSW,255,7.0,11.0,20,0.00,,,0.00,Wunderground v.1.15,2013-03-21 01:21:00,
2013-03-20 18:26:00,67.5,25.0,29.82,WNW,283,5.0,11.0,20,0.00,,,0.00,Wunderground v.1.15,2013-03-21 01:26:00,
2013-03-20 18:31:00,66.7,24.3,29.82,WNW,288,4.0,8.0,20,0.00,,,0.00,Wunderground v.1.15,2013-03-21 01:31:00,
2013-03-20 18:37:00,66.0,24.9,29.82,West,276,2.0,8.0,21,0.00,,,0.00,Wunderground v.1.15,2013-03-21 01:37:00,
2013-03-20 18:42:00,65.4,24.4,29.82,WNW,282,4.0,6.0,21,0.00,,,0.00,Wunderground v.1.15,2013-03-21 01:42:00,
2013-03-20 18:47:00,64.9,25.1,29.83,WNW,284,3.0,6.0,22,0.00,,,0.00,Wunderground v.1.15,2013-03-21 01:47:00,
2013-03-20 18:52:00,64.5,24.8,29.83,West,281,3.0,5.0,22,0.00,,,0.00,Wunderground v.1.15,2013-03-21 01:52:00,
2013-03-20 18:57:00,64.1,24.4,29.82,WNW,282,3.0,6.0,22,0.00,,,0.00,Wunderground v.1.15,2013-03-21 01:57:00,
2013-03-20 19:02:00,63.9,24.3,29.82,WNW,283,2.0,4.0,22,0.00,,,0.00,Wunderground v.1.15,2013-03-21 02:02:00,
2013-03-20 19:07:00,64.0,25.4,29.83,West,281,3.0,8.0,23,0.00,,,0.00,Wunderground v.1.15,2013-03-21 02:07:00,
2013-03-20 19:12:00,64.4,24.7,29.83,WNW,283,3.0,6.0,22,0.00,,,0.00,Wunderground v.1.15,2013-03-21 02:12:00,
2013-03-20 19:17:00,64.7,24.9,29.83,West,278,5.0,8.0,22,0.00,,,0.00,Wunderground v.1.15,2013-03-21 02:17:00,
2013-03-20 19:22:00,65.0,25.2,29.83,WNW,294,6.0,9.0,22,0.00,,,0.00,Wunderground v.1.15,2013-03-21 02:22:00,
2013-03-20 19:27:00,65.1,24.2,29.83,West,278,3.0,9.0,21,0.00,,,0.00,Wunderground v.1.15,2013-03-21 02:27:00,
2013-03-20 19:32:00,65.0,24.1,29.83,WNW,291,4.0,5.0,21,0.00,,,0.00,Wunderground v.1.15,2013-03-21 02:32:00,
2013-03-20 19:37:00,65.1,24.2,29.83,WNW,294,4.0,8.0,21,0.00,,,0.00,Wunderground v.1.15,2013-03-21 02:37:00,
2013-03-20 19:42:00,64.7,23.8,29.83,WNW,293,2.0,4.0,21,0.00,,,0.00,Wunderground v.1.15,2013-03-21 02:42:00,
2013-03-20 19:47:00,64.4,24.7,29.83,WNW,295,5.0,6.0,22,0.00,,,0.00,Wunderground v.1.15,2013-03-21 02:47:00,
2013-03-20 19:52:00,64.7,24.9,29.83,NW,316,3.0,9.0,22,0.00,,,0.00,Wunderground v.1.15,2013-03-21 02:52:00,
2013-03-20 19:57:00,64.1,24.4,29.83,WNW,297,5.0,9.0,22,0.00,,,0.00,Wunderground v.1.15,2013-03-21 02:57:00,
2013-03-20 20:02:00,64.0,24.4,29.83,WNW,293,6.0,8.0,22,0.00,,,0.00,Wunderground v.1.15,2013-03-21 03:02:00,
2013-03-20 20:08:00,63.8,24.2,29.83,NW,323,5.0,9.0,22,0.00,,,0.00,Wunderground v.1.15,2013-03-21 03:08:00,
2013-03-20 20:13:00,63.8,24.2,29.84,WNW,301,4.0,8.0,22,0.00,,,0.00,Wunderground v.1.15,2013-03-21 03:13:00,
2013-03-20 20:18:00,64.1,24.4,29.83,WNW,293,4.0,9.0,22,0.00,,,0.00,Wunderground v.1.15,2013-03-21 03:18:00,
2013-03-20 20:23:00,64.3,24.6,29.83,NW,323,4.0,9.0,22,0.00,,,0.00,Wunderground v.1.15,2013-03-21 03:23:00,
2013-03-20 20:28:00,64.2,24.5,29.83,NW,304,3.0,9.0,22,0.00,,,0.00,Wunderground v.1.15,2013-03-21 03:28:00,
2013-03-20 20:33:00,63.8,24.2,29.83,North,11,2.0,4.0,22,0.00,,,0.00,Wunderground v.1.15,2013-03-21 03:33:00,
2013-03-20 20:38:00,62.6,24.2,29.83,NE,34,3.0,5.0,23,0.00,,,0.00,Wunderground v.1.15,2013-03-21 03:38:00,
2013-03-20 20:43:00,62.0,24.8,29.83,NNE,31,2.0,4.0,24,0.00,,,0.00,Wunderground v.1.15,2013-03-21 03:43:00,
2013-03-20 20:48:00,61.6,24.4,29.84,North,4,2.0,4.0,24,0.00,,,0.00,Wunderground v.1.15,2013-03-21 03:48:00,
2013-03-20 20:53:00,61.5,24.3,29.84,NNW,340,2.0,4.0,24,0.00,,,0.00,Wunderground v.1.15,2013-03-21 03:53:00,
2013-03-20 20:58:00,61.6,24.4,29.84,NNW,327,1.0,4.0,24,0.00,,,0.00,Wunderground v.1.15,2013-03-21 03:58:00,
2013-03-20 21:00:00,61.6,24.4,29.84,NNW,330,1.0,2.0,24,0.00,,,0.00,Wunderground v.1.15,2013-03-21 04:00:00,
2013-03-20 21:05:00,61.3,24.2,29.84,NNW,339,2.0,3.0,24,0.00,,,0.00,Wunderground v.1.15,2013-03-21 04:05:00,
2013-03-20 21:10:00,61.0,23.9,29.84,NW,323,1.0,2.0,24,0.00,,,0.00,Wunderground v.1.15,2013-03-21 04:10:00,
2013-03-20 21:15:00,60.8,23.7,29.84,NNW,338,1.0,2.0,24,0.00,,,0.00,Wunderground v.1.15,2013-03-21 04:15:00,
2013-03-20 21:20:00,60.5,24.5,29.84,NNW,328,1.0,2.0,25,0.00,,,0.00,Wunderground v.1.15,2013-03-21 04:20:00,
2013-03-20 21:25:00,60.1,24.1,29.83,North,349,2.0,2.0,25,0.00,,,0.00,Wunderground v.1.15,2013-03-21 04:25:00,
2013-03-20 21:30:00,59.9,23.9,29.83,North,357,2.0,2.0,25,0.00,,,0.00,Wunderground v.1.15,2013-03-21 04:30:00,
2013-03-20 21:35:00,59.5,24.5,29.83,North,8,2.0,3.0,26,0.00,,,0.00,Wunderground v.1.15,2013-03-21 04:35:00,
2013-03-20 21:40:00,59.2,24.3,29.83,NNE,18,2.0,2.0,26,0.00,,,0.00,Wunderground v.1.15,2013-03-21 04:40:00,
2013-03-20 21:45:00,58.9,24.0,29.83,NNE,17,0.0,2.0,26,0.00,,,0.00,Wunderground v.1.15,2013-03-21 04:45:00,
2013-03-20 21:50:00,58.7,23.9,29.83,NNE,20,2.0,2.0,26,0.00,,,0.00,Wunderground v.1.15,2013-03-21 04:50:00,
2013-03-20 21:55:00,58.6,24.7,29.83,NNE,22,1.0,2.0,27,0.00,,,0.00,Wunderground v.1.15,2013-03-21 04:55:00,
2013-03-20 22:00:00,58.1,24.3,29.83,NNE,25,2.0,2.0,27,0.00,,,0.00,Wunderground v.1.15,2013-03-21 05:00:00,
2013-03-20 22:05:00,57.9,24.1,29.83,NE,34,2.0,2.0,27,0.00,,,0.00,Wunderground v.1.15,2013-03-21 05:05:00,
2013-03-20 22:10:00,57.4,24.5,29.83,NE,34,1.0,2.0,28,0.00,,,0.00,Wunderground v.1.15,2013-03-21 05:10:00,
2013-03-20 22:15:00,57.3,24.4,29.83,NE,36,0.0,2.0,28,0.00,,,0.00,Wunderground v.1.15,2013-03-21 05:15:00,
2013-03-20 22:20:00,57.3,24.4,29.84,NE,34,0.0,1.0,28,0.00,,,0.00,Wunderground v.1.15,2013-03-21 05:20:00,
2013-03-20 22:25:00,57.8,24.0,29.84,NNW,347,0.0,1.0,27,0.00,,,0.00,Wunderground v.1.15,2013-03-21 05:25:00,
2013-03-20 22:30:00,58.2,24.3,29.83,NNW,347,0.0,0.0,27,0.00,,,0.00,Wunderground v.1.15,2013-03-21 05:30:00,
2013-03-20 22:35:00,58.4,24.5,29.83,NNW,347,0.0,0.0,27,0.00,,,0.00,Wunderground v.1.15,2013-03-21 05:35:00,
2013-03-20 22:40:00,58.6,24.7,29.84,NW,326,2.0,3.0,27,0.00,,,0.00,Wunderground v.1.15,2013-03-21 05:40:00,
2013-03-20 22:45:00,58.6,24.7,29.83,NW,322,1.0,3.0,27,0.00,,,0.00,Wunderground v.1.15,2013-03-21 05:45:00,
2013-03-20 22:50:00,58.7,24.8,29.83,NNW,347,1.0,1.0,27,0.00,,,0.00,Wunderground v.1.15,2013-03-21 05:50:00,
2013-03-20 22:55:00,58.4,24.5,29.83,North,353,1.0,2.0,27,0.00,,,0.00,Wunderground v.1.15,2013-03-21 05:55:00,
2013-03-20 23:00:00,58.1,24.3,29.83,North,3,1.0,1.0,27,0.00,,,0.00,Wunderground v.1.15,2013-03-21 06:00:00,
2013-03-20 23:05:00,57.8,24.0,29.82,NNE,31,2.0,3.0,27,0.00,,,0.00,Wunderground v.1.15,2013-03-21 06:05:00,
2013-03-20 23:10:00,57.0,24.2,29.82,NNE,32,1.0,2.0,28,0.00,,,0.00,Wunderground v.1.15,2013-03-21 06:10:00,
2013-03-20 23:15:00,56.5,24.6,29.82,NNE,32,1.0,2.0,29,0.00,,,0.00,Wunderground v.1.15,2013-03-21 06:15:00,
2013-03-20 23:20:00,55.9,24.1,29.82,NNE,31,0.0,1.0,29,0.00,,,0.00,Wunderground v.1.15,2013-03-21 06:20:00,
2013-03-20 23:25:00,54.7,24.6,29.82,NE,49,2.0,2.0,31,0.00,,,0.00,Wunderground v.1.15,2013-03-21 06:25:00,
2013-03-20 23:30:00,55.1,24.2,29.82,NE,46,2.0,3.0,30,0.00,,,0.00,Wunderground v.1.15,2013-03-21 06:30:00,
2013-03-20 23:35:00,55.1,24.2,29.82,NNE,27,1.0,3.0,30,0.00,,,0.00,Wunderground v.1.15,2013-03-21 06:35:00,
2013-03-20 23:40:00,54.9,24.8,29.81,NNE,27,1.0,2.0,31,0.00,,,0.00,Wunderground v.1.15,2013-03-21 06:40:00,
2013-03-20 23:45:00,54.6,24.5,29.81,NE,44,1.0,3.0,31,0.00,,,0.00,Wunderground v.1.15,2013-03-21 06:45:00,
2013-03-20 23:50:00,53.4,25.0,29.81,ENE,70,1.0,2.0,33,0.00,,,0.00,Wunderground v.1.15,2013-03-21 06:50:00,
2013-03-20 23:55:00,52.1,25.3,29.80,East,86,2.0,3.0,35,0.00,,,0.00,Wunderground v.1.15,2013-03-21 06:55:00,